Location: Martley
(52.2333°N, 2.3667°W)
Time: 03:36:10
(UTC+00:00)

Cosmos 1092 Rocket - Pass Details

Date: 11 December 2019
Orbit: 953 x 996 km, 83.0° (Epoch: 19 January)

Event Time Altitude Azimuth Distance (km) Brightness Sun altitude
Exits shadow 05:34:21 21° 337° (NNW) 2,035 5.4 -22.2°
Maximum altitude 05:38:26 54° 268° (W) 1,152 4.0 -21.6°
Drops below altitude 10° 05:44:21 10° 193° (SSW) 2,678 6.3 -20.7°
Sets 05:46:53 0° 189° (S) 3,618 7.0 -20.3°
